Tracking 25378 objects as of 22-Jan-2022
HD Live streaming from Space Station
objects crossing your sky now

STARLINK-1899

Track STARLINK-1899 now!
10-day predictions
STARLINK-1899 is classified as:


NORAD ID: 46787
Int'l Code: 2020-074BA
Perigee: 553.2 km
Apogee: 555.6 km
Inclination: 53.1 °
Period: 95.6 minutes
Semi major axis: 6925 km
RCS: Unknown
Launch date: October 24, 2020
Source: United States (US)
Launch site: AIR FORCE EASTERN TEST RANGE (AFETR)
aabbcc
Your satellite tracking list
Your tracking list is empty




NASA's NSSDC Master Catalog

Two Line Element Set (TLE):
1 46787U 20074BA  22021.86415031  .00000843  00000-0  75484-4 0  9997
2 46787  53.0538 220.5015 0001756 168.0131 192.0900 15.06391713 69835
Source of the keplerian elements: AFSPC